Location: Bovenkerk
(52.2915°N, 4.8336°E)
Time: 19:36:03
(UTC+00:00)

Envisat - Visible Passes

Search period start: 07 March 2021 00:00
Search period end: 17 March 2021 00:00
Orbit: 764 x 766 km, 98.1° (Epoch: 07 March)

Date Brightness Start Highest point End Pass type
(mag) Time Alt. Az. Time Alt. Az. Time Alt. Az.
07 Mar 5.8 04:11:27 10° NE 04:15:00 19° E 04:18:32 10° SE visible
08 Mar 3.8 05:12:43 10° NNE 05:17:45 56° E 05:22:44 10° S visible
08 Mar 6.8 18:16:54 10° W 18:18:06 11° W 18:19:19 10° WNW visible
09 Mar 5.1 04:36:15 10° NNE 04:40:41 29° E 04:45:06 10° SSE visible
10 Mar 6.0 04:00:28 10° NE 04:03:25 15° E 04:06:22 10° ESE visible
11 Mar 4.2 05:01:21 10° NNE 05:06:16 46° E 05:11:09 10° S visible
12 Mar 5.5 04:25:01 10° NE 04:29:08 24° E 04:33:15 10° SE visible
13 Mar 6.2 03:49:43 10° ENE 03:51:49 12° E 03:53:55 10° ESE visible
13 Mar 3.4 05:26:38 10° NNE 05:31:45 74° ESE 05:36:50 10° S visible
14 Mar 4.7 04:50:01 10° NNE 04:54:46 38° E 04:59:29 10° SSE visible
15 Mar 5.8 04:13:52 10° NE 04:17:35 20° E 04:21:17 10° SE visible
16 Mar 3.7 05:15:14 10° NNE 05:20:18 61° ESE 05:25:19 10° S visible
